TimeCDT,TemperatureF,Dew PointF,Humidity,Sea Level PressureIn,VisibilityMPH,Wind Direction,Wind SpeedMPH,Gust SpeedMPH,PrecipitationIn,Events,Conditions,WindDirDegrees,DateUTC
12:56 AM,45.0,39.0,80,30.00,10.0,South,12.7,-,N/A,,Clear,190,2013-03-15 05:56:00
1:56 AM,44.1,39.0,82,29.97,10.0,South,10.4,-,N/A,,Clear,180,2013-03-15 06:56:00
2:56 AM,45.0,37.9,76,29.94,10.0,South,9.2,16.1,N/A,,Clear,170,2013-03-15 07:56:00
3:56 AM,44.1,36.0,73,29.90,10.0,South,9.2,-,N/A,,Clear,190,2013-03-15 08:56:00
4:56 AM,43.0,35.1,74,29.86,10.0,South,5.8,-,N/A,,Clear,190,2013-03-15 09:56:00
5:56 AM,44.1,35.1,71,29.83,10.0,South,9.2,-,N/A,,Clear,190,2013-03-15 10:56:00
6:56 AM,45.0,35.1,68,29.81,10.0,SSW,6.9,-,N/A,,Clear,210,2013-03-15 11:56:00
7:56 AM,45.0,35.1,68,29.80,10.0,SSW,3.5,-,N/A,,Clear,210,2013-03-15 12:56:00
8:56 AM,46.9,37.0,68,29.79,10.0,West,9.2,-,N/A,,Clear,260,2013-03-15 13:56:00
9:56 AM,50.0,37.9,63,29.80,10.0,WNW,9.2,-,N/A,,Clear,290,2013-03-15 14:56:00
10:56 AM,54.0,37.0,53,29.79,10.0,NNW,11.5,-,N/A,,Clear,330,2013-03-15 15:56:00
11:56 AM,55.9,36.0,47,29.77,10.0,North,9.2,-,N/A,,Clear,350,2013-03-15 16:56:00
12:56 PM,55.0,39.0,55,29.79,10.0,North,13.8,-,N/A,,Clear,360,2013-03-15 17:56:00
1:56 PM,57.0,42.1,57,29.78,10.0,North,10.4,-,N/A,,Clear,350,2013-03-15 18:56:00
2:56 PM,57.0,42.1,57,29.75,10.0,North,12.7,-,N/A,,Clear,360,2013-03-15 19:56:00
3:56 PM,59.0,43.0,55,29.75,10.0,North,10.4,-,N/A,,Clear,10,2013-03-15 20:56:00
4:56 PM,57.0,43.0,59,29.76,10.0,North,10.4,-,N/A,,Clear,10,2013-03-15 21:56:00
5:56 PM,55.0,43.0,64,29.75,10.0,NNE,5.8,-,N/A,,Clear,20,2013-03-15 22:56:00
6:56 PM,53.1,43.0,69,29.78,10.0,North,12.7,-,N/A,,Clear,350,2013-03-15 23:56:00
7:56 PM,48.0,39.9,74,29.82,10.0,NNW,15.0,-,N/A,,Clear,330,2013-03-16 00:56:00
8:56 PM,43.0,37.9,82,29.84,9.0,North,10.4,-,N/A,,Clear,350,2013-03-16 01:56:00
9:56 PM,39.0,36.0,89,29.88,6.0,NNW,21.9,25.3,N/A,,Clear,340,2013-03-16 02:56:00
10:09 PM,37.4,35.6,93,29.86,6.0,NNW,19.6,26.5,N/A,,Partly Cloudy,340,2013-03-16 03:09:00
10:25 PM,37.4,35.6,93,29.87,6.0,NNW,11.5,-,N/A,,Mostly Cloudy,340,2013-03-16 03:25:00
10:56 PM,37.0,34.0,89,29.90,6.0,NNW,16.1,-,N/A,,Overcast,340,2013-03-16 03:56:00